Weather History for McAllen, TX

Change the Weather History Date:

Sunday, January 26, 2014

  Actual Average Record
Temperature  
Mean Temperature 64 °F 62 °F  
Max Temperature 81 °F 72 °F 92 °F (1950)
Min Temperature 46 °F 51 °F 34 °F (1915)
Degree Days  
Heating Degree Days 1 5  
Month to date heating degree days 184 166  
Since 1 July heating degree days 549 403  
Cooling Degree Days 0 2  
Month to date cooling degree days 12 52  
Year to date cooling degree days 12 52  
Growing Degree Days 14 (Base 50)    
Moisture  
Dew Point 51 °F    
Average Humidity 63    
Maximum Humidity 86    
Minimum Humidity 39    
Precipitation  
Precipitation 0.00 in 0.04 in 1.18 in (1992)
Month to date precipitation 0.10 0.88  
Year to date precipitation 0.10 0.88  
Sea Level Pressure  
Sea Level Pressure 29.91 in    
Wind  
Wind Speed 8 mph (SSE)    
Max Wind Speed 18 mph    
Max Gust Speed 22 mph    
Visibility 10 miles    
Events      
T = Trace of Precipitation, MM = Missing Value Source: NWS Daily Summary

Daily Weather History Graph

Daily Weather History Graph

Search for Another Location

Airport:

Trip Planner

Search our weather history database for the weather conditions in past years. The results will help you decide how hot, cold, wet, or windy it might be!

Date:

Astronomy

Jan. 26, 2014 Rise Set
Actual Time 7:19 AM CST 6:11 PM CST
Civil Twilight 6:55 AM CST 6:36 PM CST
Nautical Twilight 6:27 AM CST 7:03 PM CST
Astronomical Twilight 5:59 AM CST 7:31 PM CST
Moon 2:56 AM CST (1/26) 2:04 PM CST (1/26)
Length of Visible Light 11h 40m
Length of Day
10h 51m
Waning Crescent, 23% of the Moon is Illuminated
Jan 26
Waning Crescent
Jan 30
New
Feb 6
First Quarter
Feb 14
Full
Feb 22
Last Quarter

Hourly Weather History & Observations

Time (CST) Temp. Windchill Dew Point Humidity Pressure Visibility Wind Dir Wind Speed Gust Speed Precip Events Conditions
12:53 AM 50.0 °F - 43.0 °F 77% 30.07 in 10.0 mi SSE 5.8 mph - N/A   Clear
1:53 AM 48.9 °F - 44.1 °F 83% 30.05 in 10.0 mi SSE 4.6 mph - N/A   Clear
2:53 AM 48.0 °F - 43.0 °F 83% 30.03 in 10.0 mi SE 5.8 mph - N/A   Clear
3:53 AM 48.0 °F - 43.0 °F 83% 30.01 in 10.0 mi SE 5.8 mph - N/A   Clear
4:53 AM 46.0 °F 43.9 °F 42.1 °F 86% 29.98 in 9.0 mi ESE 4.6 mph - N/A   Clear
5:53 AM 48.0 °F - 44.1 °F 86% 29.98 in 10.0 mi ESE 3.5 mph - N/A   Clear
6:53 AM 46.0 °F 43.1 °F 42.1 °F 86% 29.98 in 9.0 mi SE 5.8 mph - N/A   Clear
7:53 AM 48.0 °F - 44.1 °F 86% 29.97 in 6.0 mi SSE 4.6 mph - N/A   Clear
8:53 AM 55.0 °F - 48.9 °F 80% 29.97 in 10.0 mi South 6.9 mph - N/A   Clear
9:53 AM 63.0 °F - 51.1 °F 65% 29.98 in 10.0 mi South 9.2 mph - N/A   Clear
10:53 AM 69.1 °F - 52.0 °F 54% 29.96 in 10.0 mi South 16.1 mph 21.9 mph N/A   Clear
11:53 AM 73.9 °F - 53.1 °F 48% 29.94 in 10.0 mi SSE 12.7 mph - N/A   Clear
12:53 PM 77.0 °F - 54.0 °F 45% 29.88 in 10.0 mi South 9.2 mph 17.3 mph N/A   Clear
1:53 PM 80.1 °F - 54.0 °F 40% 29.83 in 10.0 mi South 11.5 mph 17.3 mph N/A   Clear
2:53 PM 81.0 °F - 55.0 °F 41% 29.80 in 10.0 mi SSE 11.5 mph - N/A   Clear
3:53 PM 81.0 °F - 55.0 °F 41% 29.78 in 10.0 mi SSE 10.4 mph - N/A   Clear
4:53 PM 80.1 °F - 55.9 °F 43% 29.78 in 10.0 mi SSE 8.1 mph - N/A   Clear
5:53 PM 77.0 °F - 55.9 °F 48% 29.78 in 10.0 mi SE 9.2 mph - N/A   Clear
6:53 PM 70.0 °F - 57.9 °F 65% 29.80 in 10.0 mi SE 11.5 mph - N/A   Clear
7:53 PM 68.0 °F - 57.9 °F 70% 29.82 in 10.0 mi SE 11.5 mph - N/A   Clear
8:53 PM 66.0 °F - 57.9 °F 75% 29.84 in 10.0 mi SSE 9.2 mph - N/A   Clear
9:53 PM 64.9 °F - 59.0 °F 81% 29.84 in 10.0 mi SSE 6.9 mph - N/A   Clear
10:53 PM 63.0 °F - 57.9 °F 84% 29.84 in 9.0 mi SE 6.9 mph - N/A   Clear
11:53 PM 62.1 °F - 57.0 °F 84% 29.83 in 8.0 mi SE 5.8 mph - N/A   Clear